Time,B instrument,Bx,By,Bz,sigma B,Ion instrument,Status,Tp_par,Tp_perp,carrot,r_sun,clat,clong,earth_he_angle,n_p,vp_x,vp_y,vp_z,vth_p_par,vth_p_perp
1980-07-01 00:05:42,-1,nan,nan,nan,nan,1,3,nan,nan,1696,0.66196239,5.8697319,165.24979,102.16776,nan,316.675,9.45215,-29.6442,nan,nan
1980-07-01 00:16:30,-1,nan,nan,nan,nan,1,3,nan,nan,1696,0.6620456,5.8688631,165.15663,102.17226,nan,304.947,-3.64824,-44.8943,nan,nan
1980-07-01 00:27:18,-1,nan,nan,nan,nan,1,3,nan,nan,1696,0.66212881,5.8679953,165.05957,102.17676,nan,315.835,-8.67438,-43.8935,nan,nan
1980-07-01 00:38:06,-1,nan,nan,nan,nan,1,3,nan,nan,1696,0.66221201,5.8671265,164.96643,102.18127,nan,309.999,-1.29764,-33.5969,nan,nan
1980-07-01 00:48:54,-1,nan,nan,nan,nan,1,3,nan,nan,1696,0.66228765,5.8663378,164.86896,102.18536,nan,335.201,-6.31348,60.4743,nan,nan
1980-07-01 00:59:42,-1,nan,nan,nan,nan,1,3,nan,nan,1696,0.66237086,5.865469,164.77582,102.18988,nan,327.932,3.71318,39.8668,nan,nan
1980-07-01 01:10:30,-1,nan,nan,nan,nan,1,3,nan,nan,1696,0.66245401,5.8646011,164.68265,102.19437,nan,332.235,10.9023,31.5191,nan,nan
1980-07-01 01:21:18,-1,nan,nan,nan,nan,1,4,nan,nan,1696,0.6625371,5.8637323,164.58557,102.19885,nan,nan,nan,nan,nan,nan
1980-07-01 01:32:06,-1,nan,nan,nan,nan,1,3,nan,nan,1696,0.66262025,5.8628635,164.4924,102.20334,nan,326.061,0.930524,-15.483,nan,nan
1980-07-01 01:42:54,-1,nan,nan,nan,nan,1,3,nan,nan,1696,0.66269583,5.8620749,164.39491,102.20741,nan,331.625,-8.48206,-53.2011,nan,nan
1980-07-01 01:53:42,-1,nan,nan,nan,nan,1,3,nan,nan,1696,0.66277897,5.8612061,164.30174,102.2119,nan,326.371,2.97165,-20.7456,nan,nan
1980-07-01 02:04:30,-1,nan,nan,nan,nan,1,3,nan,nan,1696,0.66286206,5.8603373,164.20467,102.21638,nan,332.35,11.2381,7.99225,nan,nan
1980-07-01 02:15:18,-1,nan,nan,nan,nan,1,3,nan,nan,1696,0.66294515,5.8594685,164.11148,102.22086,nan,334.637,18.2565,-5.15093,nan,nan
1980-07-01 02:26:06,1,7.15,-16.9,-3.6,1.00125,1,1,75108.6,139959.0,1696,0.66302824,5.8585987,164.0183,102.22533,11.6975,345.597,23.7715,8.14484,35.213,48.0682
1980-07-01 02:36:45,1,10.4,-17.2,6.95,0.229129,1,1,101382.0,223795.0,1697,0.66313708,5.85256,163.85934,102.16403,9.55385,360.499,-22.0188,-3.64954,40.9107,60.7831
1980-07-01 02:47:42,1,11.5,-16.9,6.4,0.0,1,1,78353.4,213621.0,1696,0.66318685,5.8569403,163.82762,102.23387,8.8123,357.38,-26.2118,-5.9168,35.9656,59.3855
1980-07-01 02:58:21,1,11.8,-14.7,10.4,0.0,1,1,108824.0,198833.0,1697,0.66330004,5.8508015,163.66888,102.17279,9.32492,354.104,-21.294,-3.33538,42.3857,57.2931
1980-07-01 03:22:30,1,9.9,-16.9167,6.86667,0.451233,1,1,91504.2,221028.0,1696,0.66345108,5.8541746,163.52151,102.24808,8.90806,354.76,-22.0266,-1.71381,38.8668,60.4062
1980-07-01 03:23:51,1,10.1833,-16.1667,7.96667,0.642262,1,1,102118.0,202324.0,1696,0.66345865,5.8540955,163.51021,102.24849,9.78428,352.956,-22.1002,-12.2387,41.0591,57.7939
1980-07-01 03:24:01,1,10.2571,-16.0286,8.15714,0.657764,1,1,108983.0,221853.0,1696,0.66346616,5.8540173,163.5067,102.24889,10.6425,350.386,-13.7966,0.10908,42.4168,60.5188
1980-07-01 03:25:22,1,10.45,-15.5833,6.7,0.490465,1,1,129957.0,196779.0,1696,0.66347373,5.8539381,163.49539,102.2493,10.0589,347.62,-14.0266,-4.16649,46.3188,56.9963
1980-07-01 03:26:43,1,11.2286,-13.8714,7.55714,1.469,1,1,98129.5,186414.0,1696,0.6634813,5.8538589,163.48407,102.24969,10.0166,344.461,-23.5097,-3.24814,40.2492,55.4749
1980-07-01 03:28:04,1,11.2167,-13.9,8.6,1.21849,1,1,122279.0,213505.0,1696,0.66349638,5.8537006,163.47316,102.2505,11.1603,337.685,-29.6836,-8.03105,44.9297,59.3693
1980-07-01 03:29:25,1,9.05714,-15.0429,7.14286,0.887326,1,1,140581.0,205043.0,1696,0.66350389,5.8536215,163.46185,102.25092,10.8091,354.735,-18.7448,-1.82757,48.1749,58.181
1980-07-01 03:30:46,1,10.8714,-13.8429,7.91429,1.09022,1,1,138568.0,229080.0,1696,0.66351146,5.8535423,163.44664,102.25133,10.7727,359.28,-11.9916,-5.08822,47.8288,61.4966
1980-07-01 03:32:07,1,10.7714,-15.3286,6.14286,0.487811,1,1,137334.0,202272.0,1696,0.66352654,5.853385,163.43573,102.25214,10.2434,353.161,-23.3041,-6.3427,47.6153,57.7865
1980-07-01 03:33:28,1,10.2571,-15.4286,6.12857,0.923171,1,1,155060.0,216209.0,1696,0.6635341,5.8533058,163.42441,102.25253,11.6664,350.401,-19.8292,-10.2102,50.595,59.7441
1980-07-01 03:34:49,-1,nan,nan,nan,nan,1,4,nan,nan,1696,0.66354167,5.8532267,163.4131,102.25294,nan,nan,nan,nan,nan,nan
1980-07-01 03:36:10,1,8.64,-13.7,-1.08,1.69234,1,1,46790.7,111259.0,1696,0.66355675,5.8530693,163.40219,102.25375,15.0846,333.243,25.2428,-18.42,27.7931,42.8574
1980-07-01 03:37:31,1,9.01667,-14.8667,-1.75,0.687588,1,1,45653.8,107799.0,1696,0.66356426,5.8529902,163.39087,102.25415,13.7575,330.908,25.4763,-10.2103,27.4534,42.1856
1980-07-01 03:38:52,1,10.1333,-13.9667,1.0,0.38873,1,1,41566.8,103212.0,1696,0.66357183,5.852911,163.37566,102.25456,15.2467,328.143,23.6537,-21.9358,26.1958,41.2783
1980-07-01 03:40:13,1,9.3,-14.7167,1.11667,0.368932,1,1,41202.5,102029.0,1696,0.66358691,5.8527527,163.36475,102.25537,14.5402,327.161,23.3049,-23.2229,26.0807,41.0412
1980-07-01 03:41:34,1,10.2167,-13.7167,1.46667,0.703562,1,1,37023.6,98693.5,1696,0.66359448,5.8526735,163.35344,102.25578,13.078,322.193,22.3853,-25.2358,24.7228,40.3647
1980-07-01 03:42:55,1,8.96667,-12.6667,3.06667,0.378594,1,1,39532.0,112328.0,1696,0.66360205,5.8525944,163.34212,102.25618,13.8808,328.001,20.7649,-30.639,25.5466,43.0628
1980-07-01 03:44:16,-1,nan,nan,nan,nan,1,4,nan,nan,1696,0.66361713,5.852437,163.33121,102.25699,nan,nan,nan,nan,nan,nan
1980-07-01 03:45:37,1,-9.275,7.15,-13.7,0.481534,1,1,41326.5,93461.0,1696,0.66362464,5.8523579,163.31599,102.2574,15.6467,403.875,-63.1868,34.7195,26.1199,39.2802
1980-07-01 03:46:58,1,-5.58571,5.0,-16.8571,0.731507,1,1,54299.0,73487.6,1696,0.66363221,5.8522787,163.30469,102.25781,16.7324,382.015,-48.8059,46.3848,29.9401,34.8309
1980-07-01 03:48:19,1,-4.74286,4.57143,-17.1857,0.798212,1,1,47073.7,84339.7,1696,0.66364729,5.8521214,163.29378,102.25862,16.0957,375.124,-44.9746,51.0455,27.8771,37.3142
1980-07-01 03:49:40,1,-8.08571,4.41429,-15.5429,0.675519,1,1,60053.2,92198.8,1696,0.66365486,5.8520422,163.28246,102.25902,14.7015,389.621,-43.8518,46.5427,31.4866,39.014
1980-07-01 03:51:01,1,-6.4,4.25714,-16.5571,0.589708,1,1,56915.6,113341.0,1696,0.66366994,5.8518839,163.27155,102.25983,16.3054,382.119,-45.9593,45.2886,30.653,43.2566
1980-07-01 03:52:22,1,-5.52857,-1.77143,-16.6429,3.99403,1,1,56749.3,99475.5,1696,0.66367751,5.8518047,163.26024,102.26024,15.4821,383.779,-20.6799,49.3102,30.6082,40.5243
1980-07-01 03:53:43,1,-0.5,-0.814286,-18.0429,1.56961,1,1,41194.5,98996.1,1696,0.66368502,5.8517256,163.24503,102.26065,14.2152,363.017,-33.0557,58.3434,26.0782,40.4266
1980-07-01 03:55:04,1,0.585714,-3.37143,-16.9286,0.515079,1,1,42559.4,125155.0,1696,0.6637001,5.8515682,163.23412,102.26146,15.1938,360.205,-23.6652,63.6448,26.5067,45.455
1980-07-01 03:56:25,1,-0.683333,-4.05,-17.1833,0.410623,1,1,52909.1,135477.0,1696,0.66370767,5.8514891,163.22279,102.26186,14.8182,368.207,-17.8141,62.7805,29.5545,47.2923
1980-07-01 03:57:46,1,-0.05,-5.83333,-16.5833,0.559265,1,1,41061.4,113167.0,1696,0.66371524,5.8514099,163.21149,102.26227,14.935,360.039,-8.97027,57.5691,26.036,43.2234
1980-07-01 03:59:07,1,-0.183333,-8.96667,-14.55,1.4808,1,1,48342.8,111175.0,1696,0.66373032,5.8512516,163.20058,102.26308,14.6474,355.267,5.65838,46.6336,28.2504,42.8412
1980-07-01 04:00:28,1,2.16667,-10.55,-13.0833,0.538,1,1,40628.8,113369.0,1696,0.66373789,5.8511734,163.18536,102.26349,14.1904,349.984,11.1057,41.1231,25.8985,43.2619
1980-07-01 04:01:49,1,-2.15714,-2.12857,-17.9429,1.86504,1,1,43642.6,98961.6,1696,0.6637454,5.8510942,163.17404,102.26389,13.1748,371.632,-32.0304,63.9851,26.8419,40.4195
1980-07-01 04:03:10,1,-2.61429,-2.8,-17.9571,0.92934,1,1,42536.3,115965.0,1696,0.66376048,5.8509359,163.16313,102.26469,15.7255,372.056,-14.6958,59.5169,26.4995,43.7543
1980-07-01 04:04:31,1,-0.142857,-4.81429,-17.6714,0.597614,1,1,44679.1,100464.0,1696,0.66376805,5.8508568,163.15181,102.26509,14.8106,351.482,-12.5524,58.8388,27.1588,40.7252
1980-07-01 04:05:52,1,-0.9,-6.8,-16.9167,0.933482,1,1,44247.3,108693.0,1696,0.66377556,5.8507776,163.1405,102.2655,15.2558,361.439,-6.31008,54.966,27.0272,42.3602
1980-07-01 04:07:13,1,1.58571,-10.8429,-15.1286,0.661168,1,1,54195.4,112853.0,1696,0.66379064,5.8506203,163.12959,102.26631,13.8036,360.98,7.15229,44.25,29.9116,43.1634
1980-07-01 04:08:34,1,7.63333,-12.2667,-10.65,2.01667,1,1,46069.2,115001.0,1696,0.66379821,5.8505411,163.11436,102.26671,15.8694,321.049,22.4309,12.5824,27.578,43.5721
1980-07-01 04:09:55,1,4.11429,-11.0286,-13.8429,0.604743,1,1,45480.0,121103.0,1696,0.66380572,5.850462,163.10306,102.26712,12.5183,347.97,13.9764,43.9821,27.4011,44.7132
1980-07-01 05:22:03,-1,nan,nan,nan,nan,1,3,nan,nan,1696,0.66435611,5.8446941,162.46843,102.29655,nan,367.46,16.7893,-3.25237,nan,nan
1980-07-01 05:23:24,1,9.63333,-21.0667,-2.7,0.421637,1,1,59145.7,109309.0,1696,0.66436368,5.844615,162.45711,102.29695,5.63031,360.077,10.7888,-2.05594,31.2478,42.4802
1980-07-01 05:24:45,1,9.4,-21.2,-2.76667,0.188562,1,1,63462.1,99047.9,1696,0.66437119,5.8445368,162.44579,102.29735,5.35149,366.509,16.5728,1.887,32.3679,40.4372
1980-07-01 05:26:06,1,9.76667,-21.0167,-2.7,0.443784,1,1,55381.2,87812.5,1696,0.66438627,5.8443785,162.43488,102.29816,5.0725,363.839,13.0136,-4.69089,30.237,38.0747
1980-07-01 05:27:28,1,9.66667,-21.2167,-2.41667,0.402078,1,1,58874.9,94858.8,1696,0.66439378,5.8442993,162.42355,102.29855,5.95252,366.96,14.1419,-5.26412,31.1762,39.5728
1980-07-01 05:28:49,1,11.8333,-20.15,0.233333,0.472875,1,1,74896.0,102538.0,1696,0.66440135,5.8442202,162.41225,102.29897,5.7382,346.67,6.75497,-21.1939,35.1631,41.1435
1980-07-01 05:30:10,1,11.8667,-20.2,-0.7,0.410961,1,1,70739.7,94900.3,1696,0.66441643,5.8440628,162.39743,102.29977,5.81726,352.804,9.65064,-10.5052,34.1735,39.5814
1980-07-01 05:31:31,1,8.8,-21.7714,-2.87143,1.26314,1,1,70682.1,135169.0,1696,0.66442394,5.8439837,162.38611,102.30017,8.03488,389.666,18.1672,25.6485,34.1596,47.2385
1980-07-01 05:32:52,1,8.02857,-22.3571,-1.32857,1.0202,1,1,68673.0,98901.5,1696,0.66443145,5.8439045,162.37479,102.30057,6.1721,379.647,19.5935,-0.593164,33.6706,40.4073
1980-07-01 05:34:13,1,10.1571,-21.7714,-0.628571,0.617103,1,1,54724.4,86818.0,1696,0.66444653,5.8437462,162.36388,102.30138,5.21171,369.98,13.9331,-1.20584,30.0572,37.8585
1980-07-01 05:35:34,1,8.51429,-22.3143,-0.8,0.698687,1,1,71174.6,104780.0,1696,0.6644541,5.843667,162.35255,102.30177,5.78102,384.784,21.9525,-2.75197,34.2784,41.5908
1980-07-01 05:36:55,1,9.7,-21.9286,-0.442857,0.470779,1,1,56985.6,109993.0,1696,0.66446161,5.8435879,162.33734,102.30219,5.89014,377.728,17.1858,-0.12727,30.6719,42.6128
1980-07-01 05:38:16,1,11.1143,-21.3143,1.27143,0.340468,1,1,61145.0,96417.3,1696,0.66447669,5.8434305,162.32642,102.30298,5.54328,365.128,12.0466,-21.0093,31.7715,39.8966
1980-07-01 05:39:37,1,11.3,-21.1667,1.36667,0.371184,1,1,74398.5,94556.2,1696,0.6644842,5.8433514,162.31511,102.30339,6.21143,360.134,12.6115,-20.4466,35.0461,39.5096
1980-07-01 05:43:40,1,11.8667,-20.7667,2.15,0.327024,1,1,82929.1,93882.6,1697,0.66454726,5.8373299,162.21609,102.23953,6.48312,357.086,14.3574,-13.048,37.0008,39.3686
1980-07-01 05:45:54,1,11.6714,-21.3571,0.371429,1.11007,1,1,88558.7,84356.9,1696,0.66452944,5.8428774,162.25893,102.3058,6.59404,357.023,15.7814,-24.2594,38.2361,37.318
1980-07-01 05:45:55,1,11.6167,-21.4333,0.766667,0.531507,1,1,63078.4,101058.0,1696,0.66452944,5.8428774,162.25893,102.3058,5.204,364.211,10.2816,-12.5019,32.2699,40.8453
1980-07-01 05:46:22,1,11.6429,-21.2857,2.61429,0.569998,1,1,66639.0,112238.0,1696,0.66453695,5.8427982,162.25542,102.3062,5.60132,366.217,8.00462,-25.8099,33.1682,43.0455
1980-07-01 05:47:43,1,11.5429,-21.3571,3.25714,0.559519,1,1,69295.1,103545.0,1696,0.66454452,5.8427191,162.24411,102.30661,5.48,366.93,7.72729,-23.305,33.8228,41.345
1980-07-01 05:49:04,1,11.8714,-21.0857,3.62857,0.292072,1,1,108135.0,105870.0,1696,0.6645596,5.8425617,162.23318,102.3074,5.1561,367.235,0.74304,-28.4766,42.2514,41.8065
1980-07-01 05:50:25,1,11.8286,-21.0429,4.15714,0.953832,1,1,69393.0,102621.0,1696,0.66456711,5.8424826,162.22188,102.30782,5.41827,367.016,6.02132,-25.6228,33.8466,41.1601
1980-07-01 05:51:46,1,11.9833,-20.7,4.91667,0.446592,1,1,69661.9,69692.1,1696,0.66457468,5.8424034,162.21056,102.30821,5.9816,367.003,6.28121,-30.0359,33.9122,33.9195
1980-07-01 05:53:07,1,11.6286,-20.7857,3.84286,0.434248,1,1,90220.7,75243.1,1696,0.6645897,5.8422451,162.19574,102.30902,6.45359,368.649,5.73817,-27.4295,38.5932,35.2445
1980-07-01 05:54:28,1,11.5,-20.3143,5.74286,0.56134,1,1,68927.2,85713.2,1696,0.66459727,5.8421669,162.18442,102.30942,5.99974,362.204,3.10041,-31.7048,33.7329,37.6168
1980-07-01 05:55:49,-1,nan,nan,nan,nan,1,3,nan,nan,1696,0.66460478,5.8420877,162.17311,102.30983,nan,356.64,37.7447,-50.8807,nan,nan
1980-07-01 05:57:10,-1,nan,nan,nan,nan,1,3,nan,nan,1696,0.66461986,5.8419294,162.16219,102.31062,nan,357.957,38.3792,-6.85456,nan,nan
1980-07-01 05:58:31,-1,nan,nan,nan,nan,1,3,nan,nan,1696,0.66462743,5.8418503,162.15088,102.31104,nan,369.886,46.7398,8.27774,nan,nan
1980-07-01 05:59:52,-1,nan,nan,nan,nan,1,3,nan,nan,1696,0.66463494,5.8417711,162.13565,102.31143,nan,358.694,43.8087,8.08581,nan,nan
1980-07-01 06:01:13,-1,nan,nan,nan,nan,1,3,nan,nan,1696,0.66465002,5.8416138,162.12474,102.31224,nan,370.012,36.527,32.089,nan,nan
1980-07-01 06:05:16,-1,nan,nan,nan,nan,1,3,nan,nan,1696,0.66468012,5.8412971,162.09119,102.31384,nan,383.381,39.7944,41.6671,nan,nan
1980-07-01 06:06:37,1,9.37143,-18.1714,-7.58571,1.8298,1,1,54777.0,61503.5,1696,0.66468769,5.8412189,162.07986,102.31424,12.7274,358.887,43.5324,27.4658,30.0716,31.8646
1980-07-01 06:07:58,1,6.54286,-16.8714,-11.0286,0.351672,1,1,58427.6,63532.6,1696,0.6646952,5.8411398,162.06465,102.31465,15.2476,369.666,39.1674,32.4702,31.0575,32.3859
1980-07-01 06:09:19,1,1.45714,-13.9714,-15.3286,1.89909,1,1,43331.7,63787.5,1696,0.66471028,5.8409815,162.05373,102.31544,16.8118,378.295,35.4652,37.2946,26.7461,32.4508
1980-07-01 06:10:40,1,-0.166667,-14.7333,-14.9167,0.320156,1,1,47746.1,61457.4,1696,0.66471779,5.8409023,162.0424,102.31584,16.6511,386.798,38.9951,34.9321,28.0755,31.8526
1980-07-01 06:12:01,1,1.15,-15.35,-14.15,0.635741,1,1,40528.2,56258.4,1696,0.66473287,5.840745,162.03149,102.31665,15.2836,376.383,44.4985,28.5226,25.8664,30.4755
1980-07-01 06:13:22,1,1.3,-14.5167,-14.9333,0.700198,1,1,40477.1,60774.4,1696,0.66474038,5.8406658,162.02017,102.31705,15.8438,374.73,40.0498,32.5858,25.8501,31.6751
1980-07-01 06:14:43,1,-2.47143,-15.2857,-13.8714,0.406579,1,1,47238.5,61999.9,1696,0.66474789,5.8405867,162.00885,102.31744,15.1589,388.186,36.5144,32.5087,27.9258,31.9929
1980-07-01 06:16:04,1,-2.72857,-14.2,-14.9429,0.383858,1,1,49531.6,57655.7,1696,0.66476297,5.8404284,161.99403,102.31825,14.7807,380.886,32.3531,32.4325,28.5956,30.8517
1980-07-01 06:17:25,1,-2.47143,-13.6857,-15.3857,0.514286,1,1,49647.3,53183.8,1696,0.66477048,5.8403492,161.98271,102.31865,14.0793,381.716,29.3226,36.3011,28.629,29.6311
1980-07-01 06:18:46,1,-1.55714,-13.5857,-15.9857,0.26573,1,1,45185.3,59553.6,1696,0.66477805,5.84027,161.97141,102.31906,14.4916,383.058,28.7421,34.7592,27.3122,31.3554
1980-07-01 06:20:07,1,-1.48571,-13.7429,-15.6429,0.389662,1,1,44762.8,60909.2,1696,0.66479307,5.8401127,161.96048,102.31985,14.6826,379.75,29.2899,34.7275,27.1842,31.7102
1980-07-01 06:21:28,1,-1.84286,-12.9,-16.1571,1.3424,1,1,45150.1,62681.2,1696,0.66480064,5.8400335,161.94916,102.32025,15.1086,378.593,34.0688,31.8346,27.3016,32.1682
1980-07-01 06:22:49,1,-3.77143,-11.6,-16.8571,1.42786,1,1,41672.9,70708.5,1696,0.66480815,5.8399544,161.93394,102.32066,15.8084,391.32,18.6056,41.6138,26.2292,34.166
1980-07-01 06:24:10,1,-0.0142857,-13.1,-16.5143,0.654342,1,1,48358.7,61497.7,1696,0.66482323,5.839797,161.92302,102.32146,14.848,376.237,29.7669,35.2991,28.255,31.8631
1980-07-01 06:25:31,1,-2.27143,-12.8143,-16.8714,1.06618,1,1,47432.1,78457.4,1696,0.66483074,5.8397179,161.91171,102.32187,15.5589,385.283,26.5466,36.6511,27.983,35.9894
1980-07-01 06:26:52,1,1.54286,-14.7143,-14.3143,2.34199,1,1,55131.9,72617.7,1696,0.66483825,5.8396387,161.90039,102.32227,14.4337,378.216,30.0807,32.4302,30.1689,34.6242
1980-07-01 06:28:13,1,9.61667,-17.25,-5.85,1.20819,1,1,48973.3,75209.0,1696,0.66485333,5.8394804,161.88947,102.32306,14.5968,344.306,50.8243,-16.7577,28.434,35.2365
1980-07-01 06:29:34,1,2.05,-13.6333,-15.6667,1.38333,1,1,54449.4,85328.7,1696,0.66486084,5.8394012,161.87816,102.32347,17.4228,368.683,33.8948,29.1578,29.9816,37.5323
1980-07-01 06:30:55,-1,nan,nan,nan,nan,1,4,nan,nan,1696,0.66486841,5.8393221,161.86293,102.32387,nan,nan,nan,nan,nan,nan
1980-07-01 06:32:16,1,9.68571,-18.3571,-2.14286,1.37855,1,1,67660.1,74648.0,1696,0.66488343,5.8391647,161.85202,102.32468,16.0292,346.714,46.8517,-30.2479,33.4214,35.1048
1980-07-01 06:33:37,1,11.8167,-17.3667,2.51667,1.1128,1,1,51652.5,71464.4,1696,0.664891,5.8390856,161.8407,102.32507,14.5705,344.854,41.378,-21.8337,29.2014,34.3481
1980-07-01 06:34:58,1,10.3833,-18.85,1.35,0.535153,1,1,54390.4,67064.3,1696,0.66489851,5.8390064,161.82938,102.32547,14.1172,352.162,42.0541,-23.5757,29.9653,33.2739
1980-07-01 06:36:19,1,10.4167,-17.5,-5.83333,1.86376,1,1,52114.1,70251.1,1696,0.66491359,5.8388491,161.81847,102.32628,14.8585,352.054,41.6205,7.71811,29.3316,34.0553
1980-07-01 06:37:40,1,10.9833,-18.2833,4.45,1.05764,1,1,71222.0,73230.4,1696,0.6649211,5.8387699,161.80714,102.32668,13.5044,353.23,35.0256,-36.4724,34.2898,34.7699
1980-07-01 06:39:01,1,11.6667,-18.4167,0.75,0.605071,1,1,65992.7,73344.5,1696,0.66493618,5.8386116,161.79233,102.32748,13.7574,345.948,36.556,-22.3541,33.007,34.797
1980-07-01 06:40:22,1,12.0,-18.1667,1.38333,0.428499,1,1,81453.1,67608.1,1696,0.6649437,5.8385324,161.78101,102.32788,13.4617,347.26,31.9398,-16.809,36.6701,33.4085
1980-07-01 06:41:43,1,11.8429,-17.6571,1.52857,0.852607,1,1,55118.6,68533.0,1696,0.66495121,5.8384533,161.76968,102.32828,13.7475,350.554,38.4232,-23.8129,30.1653,33.6363
1980-07-01 06:43:04,-1,nan,nan,nan,nan,1,4,nan,nan,1696,0.66496629,5.8382959,161.75877,102.32909,nan,nan,nan,nan,nan,nan
1980-07-01 06:44:25,1,10.2333,-17.7167,-3.91667,1.62019,1,1,63768.5,76814.9,1696,0.6649738,5.8382168,161.74745,102.32948,15.1641,345.351,34.221,-8.0208,32.446,35.6107
1980-07-01 06:45:46,1,9.46667,-16.7,-4.83333,0.54569,1,1,70335.1,63412.4,1696,0.66498137,5.8381376,161.73222,102.32988,12.6742,349.032,33.2304,-3.41099,34.0756,32.3553
1980-07-01 06:47:07,1,7.46667,-16.15,-4.31667,1.18439,1,1,79018.4,85803.2,1696,0.66499639,5.8379793,161.72131,102.33069,11.1473,367.022,33.079,-5.19731,36.1179,37.6365
1980-07-01 06:48:28,1,9.16667,-14.8,-1.15,2.0844,1,1,118577.0,76848.7,1696,0.66500396,5.8379011,161.70999,102.33109,9.9197,369.843,21.1806,14.4046,44.2444,35.6185
1980-07-01 06:49:49,1,6.44286,-14.5429,-4.98571,0.630516,1,1,105566.0,106955.0,1696,0.66501147,5.837822,161.69867,102.33148,13.4563,365.494,31.6947,3.25888,41.7464,42.0203
1980-07-01 06:51:10,1,10.5286,-14.8143,1.47143,4.25738,1,1,105336.0,84637.3,1696,0.66502655,5.8376637,161.68776,102.33229,10.2252,364.639,8.17922,-19.4562,41.7011,37.38
1980-07-01 06:52:31,1,-1.075,-6.9375,-11.8125,2.17033,1,1,338513.0,203319.0,1696,0.66503406,5.8375845,161.67644,102.33269,14.0606,418.713,-24.9933,49.2804,74.7559,57.9358
1980-07-01 06:53:52,1,2.025,-11.1,-9.575,1.94904,1,1,373237.0,131056.0,1696,0.66504157,5.8375053,161.66122,102.3331,15.7903,419.213,-40.9228,23.972,78.4965,46.5143
1980-07-01 06:55:13,1,4.375,-10.35,-3.7,1.45581,1,1,540567.0,172431.0,1696,0.66505665,5.837348,161.6503,102.33389,18.3085,425.343,-57.4083,19.8627,94.4675,53.3538
1980-07-01 06:56:34,1,4.4,-10.9125,-4.1,1.96624,1,1,149718.0,149841.0,1696,0.66506416,5.8372688,161.63898,102.33429,10.6886,434.833,-73.0653,12.6306,49.7159,49.7362
1980-07-01 06:57:55,1,10.5714,-16.7143,-1.57143,0.627597,1,1,97892.2,106900.0,1696,0.66507173,5.8371897,161.62767,102.3347,10.0467,382.634,2.87653,14.3587,40.2005,42.0094
1980-07-01 07:00:37,1,10.9714,-17.2571,-0.771429,0.415024,1,1,103554.0,104676.0,1696,0.66509432,5.8369532,161.60544,102.33591,9.17878,380.972,4.255,16.0821,41.3467,41.5702
1980-07-01 07:01:58,1,11.5857,-17.1286,-1.15714,0.645866,1,1,76779.0,99738.8,1696,0.66510183,5.836874,161.59021,102.3363,9.39491,383.587,6.16888,19.9214,35.6024,40.5779
1980-07-01 07:03:19,1,12.4286,-16.8286,-1.07143,0.630516,1,1,78956.4,100361.0,1696,0.66511685,5.8367157,161.57928,102.3371,9.19375,377.483,2.86737,24.074,36.1037,40.7042
1980-07-01 07:04:40,1,12.1857,-17.2143,-0.457143,0.564963,1,1,81141.7,97871.7,1696,0.66512442,5.8366365,161.56796,102.33749,9.45929,380.353,5.33229,17.6673,36.5999,40.1963
1980-07-01 07:06:01,1,11.7571,-17.4714,-0.971429,0.598297,1,1,76756.8,110627.0,1696,0.66513944,5.8364782,161.55705,102.3383,9.67411,382.774,7.24551,13.6236,35.5972,42.7355
1980-07-01 07:07:22,1,11.1833,-17.2333,0.833333,0.489047,1,1,76462.2,105709.0,1696,0.66514695,5.8363991,161.54573,102.3387,9.34813,381.825,2.56987,5.42275,35.5289,41.7747
1980-07-01 07:08:43,1,9.84286,-17.8286,-1.38571,0.922729,1,1,89300.8,104823.0,1696,0.66515446,5.8363199,161.5305,102.3391,10.4341,384.616,5.23105,17.4432,38.396,41.5993
1980-07-01 07:10:04,1,10.4714,-17.5714,0.442857,0.875517,1,1,70897.1,94976.4,1696,0.66516954,5.8361626,161.51958,102.33989,9.34872,379.985,5.69942,14.3932,34.2115,39.5973
1980-07-01 07:11:25,1,10.3143,-17.4143,1.74286,0.766652,1,1,92144.5,106026.0,1696,0.66517705,5.8360834,161.50826,102.34029,10.0129,383.179,2.76854,5.46828,39.0025,41.8373
1980-07-01 07:12:46,1,8.18571,-17.2286,-4.78571,0.23035,1,1,100375.0,150296.0,1696,0.66518456,5.8360043,161.49695,102.3407,11.1622,393.617,-3.31889,24.1073,40.7072,49.8118
1980-07-01 07:14:07,1,8.075,-17.5875,-3.3875,0.504046,1,1,104633.0,160034.0,1696,0.66519964,5.8358459,161.48602,102.34149,11.3917,395.233,-0.736211,16.1091,41.5616,51.4001
1980-07-01 07:15:28,-1,nan,nan,nan,nan,1,4,nan,nan,1696,0.66520715,5.8357668,161.4747,102.34189,nan,nan,nan,nan,nan,nan
1980-07-01 07:16:49,1,8.42857,-17.8714,-1.85714,0.551066,1,1,114080.0,109428.0,1696,0.66521466,5.8356876,161.45947,102.34229,11.4353,394.448,6.0715,12.2284,43.3974,42.5032
1980-07-01 07:18:10,1,9.52857,-17.7286,-0.414286,0.778014,1,1,94052.5,95195.3,1696,0.66522974,5.8355293,161.44856,102.34309,8.82099,384.853,3.60424,-1.12484,39.4042,39.6429
1980-07-01 07:19:31,1,9.31429,-17.8429,0.0142857,0.310365,1,1,93201.9,106842.0,1696,0.66523725,5.8354502,161.43724,102.34349,10.2294,392.943,5.88307,-5.89382,39.2257,41.998
1980-07-01 07:20:52,1,9.07143,-17.8857,0.557143,0.667618,1,1,97012.2,121009.0,1696,0.66524476,5.835371,161.42592,102.34389,10.3238,389.155,3.6166,-7.90872,40.0194,44.6958
1980-07-01 07:22:13,1,7.78571,-18.2,2.0,0.532993,1,1,107430.0,115766.0,1696,0.66525984,5.8352137,161.41499,102.34468,8.98284,405.86,8.32614,-14.9151,42.1135,43.7167
1980-07-01 07:23:34,1,6.71429,-18.8,1.35714,0.978754,1,1,110189.0,139667.0,1696,0.66526735,5.8351345,161.39977,102.34508,11.7066,402.703,3.52169,-8.46968,42.6507,48.0181
1980-07-01 07:24:55,1,11.1,-16.1429,-0.757143,2.70751,1,1,94552.2,158673.0,1696,0.66527486,5.8350554,161.38846,102.34549,11.2787,385.01,-5.4345,1.32947,39.5088,51.1811
1980-07-01 07:26:16,1,9.94286,-17.0,0.485714,0.298978,1,1,89505.8,162005.0,1696,0.66528994,5.834897,161.37753,102.34628,11.6641,391.243,-0.0242553,-2.85575,38.44,51.7157
1980-07-01 07:27:37,1,9.32857,-17.2286,1.24286,0.339267,1,1,86760.4,155139.0,1696,0.66529745,5.8348179,161.36621,102.34668,10.4839,390.928,1.02276,-1.70437,37.8459,50.6079
1980-07-01 07:28:58,1,9.81429,-16.6857,-0.1,0.353986,1,1,82148.4,159786.0,1696,0.66530496,5.8347387,161.35489,102.34708,10.2228,382.927,-1.45039,12.1335,36.8262,51.3603
1980-07-01 07:30:19,1,9.38571,-16.4286,3.28571,0.432836,1,1,95648.2,163081.0,1696,0.66532004,5.8345814,161.34398,102.34789,11.3426,386.572,-5.03234,2.24134,39.7371,51.8872
1980-07-01 07:31:40,1,8.78571,-16.9714,-2.78571,0.679436,1,1,99520.2,163358.0,1696,0.66532755,5.8345022,161.32875,102.34828,11.0958,389.277,-3.58937,32.5572,40.5335,51.9312